STARLINK-34034, 63947

Orbit data source: Space-Track

STARLINK-34034, 63947 is a payload satellite owned by SpaceX/Seattle (US) in LEO that was launched on Tue, 13 May 2025 UTC via an FALCON 9 launch vehicle from the Air Force Western Test Range (AFWTR). Payload-class satellites include a variety of spacecraft equipped with specific instruments for various scientific and technological missions. These include communications satellites like Starlink; space stations such as the ISS; scientific satellites like the Hubble; Earth observation satellites from companies like Planet Labs, Umbra, and HawkEye 360; GPS; miniature CubeSats for education and research; and military/defense satellites.

Loading next visibility...
Identifier
63947, 2025-098X
Orbit
LEO
Country
Flag of USUS
Related business
Manufacturer
SpaceX/Seattle
Mission
Operational Commercial Communications
Bus & Motor
STARLINK V2MO, Unknown motor
Mass
575 kg wet, ~530 kg dry
Launch date (UTC)
2025-05-13 (1 year ago)
Launch vehicle
FALCON 9
Launch site
Air Force Western Test Range (AFWTR)
Object type
Payload
Rocket body
Debris
Shape & HBR
Box + 2 Pan, 17.7 m
Radar Cross Section
36.964 m², Large (>1 m²)

Expand to show TLE details & history
Last TLE update: 1 day ago

TLE from 1 day ago
0 STARLINK-34034
1 63947U 25098X   26170.99002708  .00006726  00000-0  57092-3 0  9991
2 63947  70.0019  16.6201 0002567 265.4623  94.6243 14.98329894 61879
Epoch: 2026-06-19T23:45Z
TLE epoch observation values (Epoch: 2026-06-19T23:45:38.339Z)
Latitude
-0.00002°
Longitude
111.99926°
Altitude
574.625 km
Speed
7.574 km/s
True Right ascension
01h 06m 28s
True Declination
0° 00' 00"
Sunlit
Object was in daylight at epoch
Visualization orbit readout
Latitude
Unknown
Longitude
Unknown
Altitude
Unknown
Speed
Unknown
Apparent Right ascension
Unknown
Apparent Declination
Unknown
Sunlit
N/A
Visualization observer readout
Local Sidereal Time
10:20:21
Azimuth
Unknown
Elevation
Unknown
Doppler factor
Unknown
Orbital elements
Apogee altitude
571.788 km
Perigee altitude
568.221 km
Semi-major axis
6,948.141 km
Eccentricity
0.00026
Inclination
70.0019°
RAAN
16.6201°
Arg. of periapsis
265.4623°
True anomaly
94.65362°
Mean anomaly
94.6243°
Eccentric anomaly
94.63896°
Mean motion
3.74749 °/min
Orbital period
96.06 mins
BSTAR
0.00057092
Loading maneuver chart data...
Computing Atmospheric mass density...
Loading historical data...
Loading historical data...
Loading historical data...
Loading historical data...
Loading historical data...
Loading historical data...
Loading historical data...

Documentation

Showing up to 5 results
|